Stündliche Wetter Barnstaple

Heute, 22 Oktober, Donnerstag

Zeit Temperatur Niederschläge Wind Luftdruck Luftfeuchtigkeit
00:00 +11°C° 0 mm 4 m/S 746 mmHg 96%
01:00 +11°C° 0.2 mm 4 m/S 746 mmHg 96%
02:00 +11°C° 0.2 mm 4 m/S 747 mmHg 96%
03:00 +10°C° 0.2 mm 4 m/S 747 mmHg 96%
04:00 +10°C° 0.1 mm 4 m/S 747 mmHg 95%
05:00 +10°C° 0.1 mm 3 m/S 748 mmHg 95%
06:00 +10°C° 0.1 mm 3 m/S 748 mmHg 95%
07:00 +11°C° 0 mm 3 m/S 748 mmHg 93%
08:00 +11°C° 0 mm 3 m/S 749 mmHg 92%
09:00 +11°C° 0 mm 3 m/S 749 mmHg 91%
10:00 +12°C° 0 mm 3 m/S 749 mmHg 88%
11:00 +12°C° 0 mm 3 m/S 749 mmHg 85%
12:00 +13°C° 0 mm 3 m/S 750 mmHg 82%
13:00 +13°C° 0 mm 3 m/S 750 mmHg 82%
14:00 +12°C° 0 mm 3 m/S 750 mmHg 83%
15:00 +12°C° 0 mm 3 m/S 750 mmHg 83%
16:00 +12°C° 0 mm 2 m/S 750 mmHg 85%
17:00 +10°C° 0 mm 2 m/S 749 mmHg 87%
18:00 +10°C° 0 mm 1 m/S 749 mmHg 88%
19:00 +10°C° 0 mm 1 m/S 750 mmHg 90%
20:00 +10°C° 0 mm 1 m/S 750 mmHg 91%
21:00 +8°C° 0 mm 0 m/S 750 mmHg 92%
22:00 +9°C° 0 mm 0 m/S 750 mmHg 92%
23:00 +9°C° 0 mm 0 m/S 750 mmHg 93%

Morgen, 23 Oktober, Freitag

Zeit Temperatur Niederschläge Wind Luftdruck Luftfeuchtigkeit
00:00 +9°C° 0 mm 0 m/S 750 mmHg 93%
01:00 +10°C° 0 mm 1 m/S 749 mmHg 93%
02:00 +9°C° 0 mm 2 m/S 749 mmHg 93%
03:00 +9°C° 0 mm 2 m/S 749 mmHg 94%
04:00 +9°C° 0 mm 3 m/S 749 mmHg 93%
05:00 +9°C° 0 mm 3 m/S 749 mmHg 92%
06:00 +8°C° 0 mm 4 m/S 749 mmHg 91%
07:00 +8°C° 0 mm 5 m/S 749 mmHg 89%
08:00 +8°C° 0 mm 6 m/S 749 mmHg 87%
09:00 +9°C° 0 mm 7 m/S 749 mmHg 85%
10:00 +9°C° 0 mm 7 m/S 749 mmHg 84%
11:00 +10°C° 0 mm 8 m/S 750 mmHg 84%
12:00 +11°C° 0 mm 9 m/S 750 mmHg 83%
13:00 +10°C° 0 mm 8 m/S 750 mmHg 81%
14:00 +10°C° 0 mm 8 m/S 750 mmHg 78%
15:00 +10°C° 0 mm 7 m/S 750 mmHg 75%
16:00 +9°C° 0 mm 6 m/S 751 mmHg 78%
17:00 +8°C° 0 mm 6 m/S 751 mmHg 80%
18:00 +7°C° 0 mm 5 m/S 751 mmHg 83%
19:00 +6°C° 0 mm 5 m/S 751 mmHg 85%
20:00 +6°C° 0 mm 5 m/S 751 mmHg 86%
21:00 +6°C° 0 mm 5 m/S 752 mmHg 87%
22:00 +5°C° 0 mm 6 m/S 751 mmHg 87%
23:00 +5°C° 0 mm 6 m/S 751 mmHg 86%

übermorgen, 24 Oktober, Samstag

Zeit Temperatur Niederschläge Wind Luftdruck Luftfeuchtigkeit
00:00 +5°C° 0 mm 7 m/S 750 mmHg 86%
01:00 +6°C° 0 mm 7 m/S 750 mmHg 85%
02:00 +6°C° 0 mm 8 m/S 749 mmHg 85%
03:00 +7°C° 0 mm 8 m/S 749 mmHg 85%
04:00 +7°C° 0 mm 9 m/S 748 mmHg 85%
05:00 +8°C° 0 mm 10 m/S 747 mmHg 85%
06:00 +8°C° 0 mm 10 m/S 746 mmHg 85%
07:00 +9°C° 0 mm 11 m/S 746 mmHg 86%
08:00 +11°C° 0 mm 11 m/S 745 mmHg 86%
09:00 +13°C° 0 mm 12 m/S 744 mmHg 86%
10:00 +13°C° 0 mm 12 m/S 744 mmHg 86%
11:00 +13°C° 0 mm 12 m/S 743 mmHg 85%
12:00 +13°C° 0 mm 12 m/S 742 mmHg 84%
13:00 +13°C° 0.3 mm 12 m/S 742 mmHg 85%
14:00 +13°C° 0.3 mm 11 m/S 741 mmHg 86%
15:00 +13°C° 0.3 mm 11 m/S 741 mmHg 87%
16:00 +12°C° 2.9 mm 10 m/S 740 mmHg 90%
17:00 +11°C° 2.9 mm 9 m/S 740 mmHg 92%
18:00 +10°C° 2.9 mm 9 m/S 740 mmHg 94%
19:00 +10°C° 0.7 mm 8 m/S 740 mmHg 93%
20:00 +9°C° 0.7 mm 8 m/S 740 mmHg 92%
21:00 +9°C° 0.7 mm 7 m/S 740 mmHg 91%
22:00 +9°C° 0.2 mm 7 m/S 741 mmHg 90%
23:00 +7°C° 0.2 mm 8 m/S 741 mmHg 89%

, 25 Oktober, Sonntag

Zeit Temperatur Niederschläge Wind Luftdruck Luftfeuchtigkeit
00:00 +7°C° 0.2 mm 8 m/S 741 mmHg 88%
01:00 +7°C° 0.1 mm 8 m/S 741 mmHg 87%
02:00 +6°C° 0.1 mm 8 m/S 741 mmHg 87%
03:00 +6°C° 0.1 mm 8 m/S 741 mmHg 86%
04:00 +6°C° 0.2 mm 8 m/S 741 mmHg 87%
05:00 +6°C° 0.2 mm 8 m/S 741 mmHg 87%
06:00 +5°C° 0.2 mm 8 m/S 741 mmHg 88%
07:00 +6°C° 0.1 mm 8 m/S 741 mmHg 87%
08:00 +7°C° 0.1 mm 8 m/S 741 mmHg 85%
09:00 +9°C° 0.1 mm 8 m/S 741 mmHg 84%
10:00 +9°C° 0.2 mm 8 m/S 742 mmHg 80%
11:00 +10°C° 0.2 mm 9 m/S 742 mmHg 77%
12:00 +11°C° 0.2 mm 9 m/S 742 mmHg 74%
13:00 +11°C° 0.4 mm 8 m/S 742 mmHg 76%
14:00 +10°C° 0.4 mm 7 m/S 742 mmHg 78%
15:00 +10°C° 0.4 mm 7 m/S 742 mmHg 81%
16:00 +9°C° 0.1 mm 6 m/S 742 mmHg 84%
17:00 +8°C° 0.1 mm 5 m/S 742 mmHg 86%
18:00 +6°C° 0.1 mm 5 m/S 742 mmHg 89%
19:00 +6°C° 0.1 mm 4 m/S 743 mmHg 89%
20:00 +6°C° 0.1 mm 4 m/S 743 mmHg 89%
21:00 +5°C° 0.1 mm 4 m/S 743 mmHg 89%
22:00 +5°C° 0.1 mm 3 m/S 743 mmHg 89%
23:00 +5°C° 0.1 mm 3 m/S 743 mmHg 89%

25 Oktober, Sonntag

Zeit Temperatur Niederschläge Wind Luftdruck Luftfeuchtigkeit
00:00 +7°C° 0.2 mm 8 m/S 741 mmHg 88%
01:00 +7°C° 0.1 mm 8 m/S 741 mmHg 87%
02:00 +6°C° 0.1 mm 8 m/S 741 mmHg 87%
03:00 +6°C° 0.1 mm 8 m/S 741 mmHg 86%
04:00 +6°C° 0.2 mm 8 m/S 741 mmHg 87%
05:00 +6°C° 0.2 mm 8 m/S 741 mmHg 87%
06:00 +5°C° 0.2 mm 8 m/S 741 mmHg 88%
07:00 +6°C° 0.1 mm 8 m/S 741 mmHg 87%
08:00 +7°C° 0.1 mm 8 m/S 741 mmHg 85%
09:00 +9°C° 0.1 mm 8 m/S 741 mmHg 84%
10:00 +9°C° 0.2 mm 8 m/S 742 mmHg 80%
11:00 +10°C° 0.2 mm 9 m/S 742 mmHg 77%
12:00 +11°C° 0.2 mm 9 m/S 742 mmHg 74%
13:00 +11°C° 0.4 mm 8 m/S 742 mmHg 76%
14:00 +10°C° 0.4 mm 7 m/S 742 mmHg 78%
15:00 +10°C° 0.4 mm 7 m/S 742 mmHg 81%
16:00 +9°C° 0.1 mm 6 m/S 742 mmHg 84%
17:00 +8°C° 0.1 mm 5 m/S 742 mmHg 86%
18:00 +6°C° 0.1 mm 5 m/S 742 mmHg 89%
19:00 +6°C° 0.1 mm 4 m/S 743 mmHg 89%
20:00 +6°C° 0.1 mm 4 m/S 743 mmHg 89%
21:00 +5°C° 0.1 mm 4 m/S 743 mmHg 89%
22:00 +5°C° 0.1 mm 3 m/S 743 mmHg 89%
23:00 +5°C° 0.1 mm 3 m/S 743 mmHg 89%

26 Oktober, Montag

Zeit Temperatur Niederschläge Wind Luftdruck Luftfeuchtigkeit
00:00 +5°C° 0.1 mm 3 m/S 744 mmHg 89%
01:00 +5°C° 0.4 mm 3 m/S 744 mmHg 90%
02:00 +5°C° 0.4 mm 4 m/S 744 mmHg 90%
03:00 +5°C° 0.4 mm 4 m/S 744 mmHg 90%
04:00 +5°C° 0.1 mm 4 m/S 745 mmHg 90%
05:00 +5°C° 0.1 mm 4 m/S 746 mmHg 90%
06:00 +6°C° 0.1 mm 4 m/S 746 mmHg 90%
07:00 +6°C° 0 mm 4 m/S 747 mmHg 88%
08:00 +7°C° 0 mm 4 m/S 747 mmHg 86%
09:00 +8°C° 0 mm 4 m/S 748 mmHg 83%
10:00 +10°C° 0.1 mm 4 m/S 748 mmHg 81%
11:00 +9°C° 0.1 mm 5 m/S 749 mmHg 79%
12:00 +10°C° 0.1 mm 6 m/S 749 mmHg 77%
13:00 +10°C° 0 mm 5 m/S 749 mmHg 77%
14:00 +10°C° 0 mm 5 m/S 749 mmHg 76%
15:00 +10°C° 0 mm 5 m/S 749 mmHg 76%
16:00 +8°C° 0 mm 4 m/S 750 mmHg 79%
17:00 +7°C° 0 mm 4 m/S 750 mmHg 82%
18:00 +5°C° 0 mm 3 m/S 750 mmHg 86%
19:00 +5°C° 0 mm 3 m/S 750 mmHg 86%
20:00 +5°C° 0 mm 3 m/S 750 mmHg 86%
21:00 +5°C° 0 mm 3 m/S 751 mmHg 86%
22:00 +5°C° 0 mm 4 m/S 750 mmHg 87%
23:00 +5°C° 0 mm 4 m/S 750 mmHg 88%

27 Oktober, Dienstag

Zeit Temperatur Niederschläge Wind Luftdruck Luftfeuchtigkeit
00:00 +5°C° 0 mm 5 m/S 750 mmHg 89%
01:00 +6°C° 0 mm 5 m/S 749 mmHg 88%
02:00 +7°C° 0 mm 6 m/S 749 mmHg 87%
03:00 +7°C° 0 mm 6 m/S 748 mmHg 86%
04:00 +8°C° 0.2 mm 7 m/S 747 mmHg 88%
05:00 +7°C° 0.2 mm 8 m/S 747 mmHg 90%
06:00 +7°C° 0.2 mm 9 m/S 746 mmHg 92%
07:00 +8°C° 0.2 mm 10 m/S 746 mmHg 92%
08:00 +9°C° 0.2 mm 11 m/S 745 mmHg 92%
09:00 +9°C° 0.2 mm 12 m/S 744 mmHg 93%
10:00 +11°C° 0.6 mm 11 m/S 744 mmHg 94%
11:00 +11°C° 0.6 mm 10 m/S 744 mmHg 94%
12:00 +12°C° 0.6 mm 10 m/S 743 mmHg 95%
13:00 +12°C° 0.4 mm 9 m/S 743 mmHg 93%
14:00 +12°C° 0.4 mm 8 m/S 743 mmHg 90%
15:00 +12°C° 0.4 mm 7 m/S 743 mmHg 87%
16:00 +11°C° 0.2 mm 8 m/S 743 mmHg 88%
17:00 +10°C° 0.2 mm 8 m/S 744 mmHg 88%
18:00 +10°C° 0.2 mm 8 m/S 744 mmHg 89%
19:00 +9°C° 0.1 mm 8 m/S 744 mmHg 89%
20:00 +7°C° 0.1 mm 8 m/S 745 mmHg 89%
21:00 +6°C° 0.1 mm 8 m/S 746 mmHg 89%
22:00 +6°C° 0.1 mm 8 m/S 746 mmHg 89%
23:00 +6°C° 0.1 mm 8 m/S 746 mmHg 88%
Mehr zeigen